Location: Kampernieuwstad
(52.5135°N, 5.8742°E)
Time: 20:38:05
(UTC+00:00)

Cosmos 841 Rocket - Pass Details

Date: 15 May 2026
Orbit: 741 x 767 km, 74.0° (Epoch: 7 June)

Event Time Altitude Azimuth Distance (km) Brightness Sun altitude
Exits shadow 23:27:22 24° 222° (SW) 1,535 4.7 -18.4°
Maximum altitude 23:30:29 66° 299° (WNW) 835 3.7 -18.4°
Drops below altitude 10° 23:35:44 10° 22° (NNE) 2,316 7.0 -18.4°
Sets 23:38:09 0° 25° (NNE) 3,248 8.0 -18.4°
